Weather History for KFCM - January, 2012

Change the Weather History Date:

Friday, January 20, 2012

  Actual Average Record
Temperature  
Mean Temperature 5 °F -  
Max Temperature 10 °F 21 °F 39 °F (2002)
Min Temperature 0 °F 6 °F -18 °F (2008)
Degree Days  
Heating Degree Days 60    
Moisture  
Dew Point -1 °F    
Average Humidity 73    
Maximum Humidity 84    
Minimum Humidity 55    
Precipitation  
Precipitation 0.05 in - - ()
Sea Level Pressure  
Sea Level Pressure 30.19 in    
Wind  
Wind Speed 3 mph (ESE)    
Max Wind Speed 7 mph    
Max Gust Speed -    
Visibility 5 miles    
Events Snow    
Averages and records for this station are not official NWS values.
T = Trace of Precipitation, MM = Missing Value Source: NWS Daily Summary

Daily Weather History Graph

Daily Weather History Graph

Search for Another Location

Airport or City:

Trip Planner

Search our weather history database for the weather conditions in past years. The results will help you decide how hot, cold, wet, or windy it might be!

Date:

Astronomy

Jan. 20, 2012 Rise Set
Actual Time 7:45 AM CST 5:04 PM CST
Civil Twilight 7:12 AM CST 5:37 PM CST
Nautical Twilight 6:36 AM CST 6:13 PM CST
Astronomical Twilight 6:02 AM CST 6:48 PM CST
Moon 5:26 AM CST (1/20) 2:34 PM CST (1/20)
Length of Visible Light 10h 24m
Length of Day
9h 19m
Waning Crescent, 8% of the Moon is Illuminated
Jan 20
Waning Crescent
Jan 23
New
Jan 30
First Quarter
Feb 7
Full
Feb 14
Last Quarter

Hourly Weather History & Observations

Time (CST) Temp. Windchill Dew Point Humidity Pressure Visibility Wind Dir Wind Speed Gust Speed Precip Events Conditions
12:53 AM -0.0 °F - -9.9 °F 63% 30.21 in 10.0 mi Calm Calm - N/A   Mostly Cloudy
1:53 AM -0.0 °F - -9.0 °F 66% 30.21 in 10.0 mi Calm Calm - N/A   Mostly Cloudy
2:53 AM 1.9 °F - -9.0 °F 60% 30.20 in 10.0 mi Calm Calm - N/A   Overcast
3:53 AM 3.0 °F -4.4 °F -9.0 °F 57% 30.17 in 10.0 mi ESE 3.5 mph - N/A   Overcast
4:53 AM 3.9 °F -3.4 °F -9.0 °F 55% 30.18 in 10.0 mi ESE 3.5 mph - N/A   Overcast
5:31 AM 3.2 °F -4.2 °F -5.8 °F 66% 30.11 in 2.0 mi East 3.5 mph - 0.00 in Snow Light Snow
5:38 AM 3.2 °F -6.2 °F -5.8 °F 66% 30.11 in 1.2 mi ESE 4.6 mph - 0.00 in Snow Light Snow
5:53 AM 3.0 °F -4.4 °F -2.9 °F 76% 30.19 in 1.2 mi ESE 3.5 mph - 0.00 in Snow Light Snow
6:53 AM 3.9 °F -6.9 °F -2.0 °F 76% 30.19 in 1.2 mi East 5.8 mph - 0.01 in Snow Light Snow
7:53 AM 3.9 °F -5.3 °F -0.9 °F 80% 30.18 in 1.5 mi East 4.6 mph - 0.01 in Snow Light Snow
8:53 AM 3.9 °F -6.9 °F -0.9 °F 80% 30.18 in 1.5 mi East 5.8 mph - 0.01 in Snow Light Snow
9:00 AM 5.0 °F -6.9 °F -0.4 °F 78% 30.12 in 0.8 mi East 6.9 mph - 0.00 in Snow Light Snow
9:53 AM 5.0 °F -4.1 °F -0.0 °F 80% 30.20 in 0.8 mi East 4.6 mph - 0.01 in Snow Light Snow
10:28 AM 5.0 °F -6.9 °F -0.4 °F 78% 30.14 in 1.0 mi ESE 6.9 mph - 0.00 in Snow Light Snow
10:38 AM 5.0 °F -5.6 °F -0.4 °F 78% 30.14 in 0.8 mi ESE 5.8 mph - 0.00 in Snow Light Snow
10:53 AM 6.1 °F -2.8 °F -0.0 °F 76% 30.23 in 0.8 mi ESE 4.6 mph - 0.01 in Snow Light Snow
11:18 AM 6.8 °F -3.5 °F 1.4 °F 79% 30.16 in 1.0 mi SE 5.8 mph - 0.00 in Snow Light Snow
11:49 AM 6.8 °F -3.5 °F -0.4 °F 72% 30.15 in 2.0 mi SE 5.8 mph - 0.00 in Snow Light Snow
11:53 AM 7.0 °F 0.1 °F 1.0 °F 77% 30.23 in 2.5 mi SSE 3.5 mph - 0.00 in Snow Light Snow
12:02 PM 8.6 °F 0.1 °F 1.4 °F 73% 30.15 in 3.0 mi South 4.6 mph - 0.00 in Snow Light Snow
12:53 PM 9.0 °F 2.4 °F 1.9 °F 73% 30.21 in 7.0 mi South 3.5 mph - 0.00 in Snow Light Snow
1:38 PM 10.4 °F 4.0 °F 1.4 °F 67% 30.13 in 3.0 mi East 3.5 mph - 0.00 in Snow Light Snow
1:48 PM 10.4 °F - 1.4 °F 67% 30.13 in 3.0 mi Calm Calm - 0.00 in Snow Light Snow
1:53 PM 10.0 °F - 1.9 °F 70% 30.20 in 3.0 mi Calm Calm - 0.00 in   Haze
2:53 PM 10.9 °F 4.7 °F 3.0 °F 70% 30.19 in 10.0 mi ENE 3.5 mph - N/A   Overcast
3:53 PM 10.9 °F - 1.9 °F 67% 30.20 in 10.0 mi Calm Calm - N/A   Overcast
5:53 PM 10.0 °F 1.8 °F 1.9 °F 70% 30.24 in 10.0 mi North 4.6 mph - N/A   Overcast
6:53 PM 9.0 °F 2.4 °F 1.9 °F 73% 30.25 in 10.0 mi North 3.5 mph - N/A   Mostly Cloudy
7:53 PM 8.1 °F - 1.9 °F 76% 30.26 in 10.0 mi Calm Calm - N/A   Mostly Cloudy
8:53 PM 7.0 °F 0.1 °F 1.9 °F 80% 30.28 in 10.0 mi NNW 3.5 mph - N/A   Partly Cloudy
9:53 PM 5.0 °F -2.1 °F 1.0 °F 84% 30.28 in 10.0 mi WNW 3.5 mph - N/A   Clear
10:53 PM 5.0 °F - -0.0 °F 80% 30.27 in 10.0 mi Calm Calm - N/A   Clear
11:53 PM 3.0 °F - -0.9 °F 84% 30.30 in 10.0 mi Calm Calm - N/A   Clear